Wind_Speed
50 48 47 45 44 44 45 46 46 44 43 42 42 43 44 44 43 42 41 40 39 38 37 36 36 35 35 34 34 34 33 32 31 30 29 28 28 27 26 25 24 22 22 22 22 21 19 18 17 16 16 15
55 52 50 49 47 45 46 47 48 47 46 44 43 43 44 45 45 44 43 43 42 40 39 38 37 37 36 35 35 35 34 33 33 32 31 30 29 28 27 26 25 23 23 23 22 21 20 19 18 17 16 16
59 57 54 52 50 48 47 48 49 50 49 46 45 44 44 45 45 46 45 44 44 43 42 41 39 39 38 37 36 36 35 34 34 33 32 31 29 29 28 27 26 24 23 23 22 21 20 19 18 17 16 17
61 60 58 55 53 51 49 49 50 51 51 49 48 46 45 45 46 46 45 44 44 44 44 42 42 41 40 39 38 38 37 36 35 34 33 32 30 29 29 27 26 25 24 22 21 21 21 20 19 18 17 18
63 63 61 59 57 55 52 51 51 51 53 52 50 48 47 46 46 45 44 44 44 45 44 44 43 43 42 41 40 39 38 37 36 36 34 33 32 30 29 28 26 25 24 22 22 22 21 21 20 19 19 20
66 65 63 62 60 58 56 53 52 52 52 54 52 50 49 47 46 45 44 44 45 44 43 43 44 44 43 42 41 40 39 39 38 37 35 34 33 31 29 28 26 25 24 22 22 23 22 22 21 21 21 22
69 68 66 64 62 61 59 57 54 53 52 53 54 52 50 48 46 45 45 45 45 44 43 42 43 43 43 42 42 41 40 40 38 37 36 35 33 31 29 27 26 25 23 23 23 24 23 23 23 23 23 23
70 71 70 67 64 63 61 59 56 54 53 53 54 54 51 49 48 46 45 46 45 44 43 42 42 41 41 41 41 40 39 39 37 36 35 34 32 30 29 28 27 25 23 23 24 25 25 24 24 24 24 23
68 71 73 72 67 64 63 61 59 56 54 53 53 55 53 51 50 48 46 46 45 44 43 42 42 41 40 39 39 39 38 37 36 35 35 33 31 29 29 29 28 26 24 24 25 26 26 25 25 25 24 24
66 71 73 75 70 66 64 62 60 58 56 54 53 54 54 53 51 50 48 46 45 44 44 43 42 42 41 40 39 38 36 36 35 35 34 32 31 30 30 29 29 27 24 25 27 27 26 26 25 25 25 25
65 72 73 74 72 67 65 63 61 59 57 55 53 53 54 55 53 51 50 48 46 44 44 43 43 42 42 41 39 38 36 35 35 35 34 33 32 32 31 31 30 28 26 26 28 28 27 26 26 26 26 26
64 68 71 72 72 70 66 63 62 59 57 56 54 53 54 55 54 53 51 49 48 45 45 43 43 43 42 42 40 39 37 36 36 35 34 34 34 33 33 33 32 29 27 27 29 28 27 26 27 27 26 26
65 64 67 71 70 69 67 64 63 61 58 57 55 54 53 55 55 54 52 51 50 48 46 44 43 42 42 42 41 40 38 38 37 36 36 36 36 34 34 34 33 31 29 28 30 29 28 27 27 28 27 26
64 67 66 68 68 66 66 64 63 62 60 58 56 55 53 53 55 54 53 52 51 50 48 47 44 42 41 41 41 40 39 39 39 38 38 38 37 36 35 35 33 33 31 30 30 30 29 28 28 28 27 26
57 67 67 65 66 67 66 65 64 62 61 59 56 55 53 52 54 55 54 53 52 51 50 48 46 44 42 41 40 40 40 40 40 39 39 39 38 37 36 35 34 34 33 31 31 31 30 29 28 28 27 27
56 60 66 65 65 67 67 66 66 64 62 61 57 55 54 52 53 55 56 55 54 52 51 49 48 46 44 42 41 41 41 41 41 40 40 40 39 37 37 36 36 35 34 32 31 31 31 29 29 28 27 27
59 58 59 65 66 65 67 67 66 65 64 62 59 56 54 53 52 54 55 56 55 53 51 50 48 48 46 44 43 42 42 41 41 41 41 41 39 38 38 37 37 36 34 33 32 31 31 30 30 29 28 28
58 60 59 60 67 67 66 68 68 66 65 63 61 58 55 54 52 52 54 55 56 55 52 50 49 48 47 46 45 43 43 43 42 42 42 42 41 39 39 38 38 38 36 35 33 32 31 30 31 30 29 28
58 61 61 53 61 70 67 67 68 67 66 64 62 60 57 55 53 51 52 54 55 56 54 52 50 48 48 47 46 45 44 44 44 43 43 42 41 41 40 39 38 38 37 35 34 33 32 31 31 31 30 29
59 60 60 53 54 67 70 68 68 67 66 66 63 61 59 56 54 52 51 52 54 55 55 53 51 49 48 48 47 47 46 45 45 44 44 43 42 42 41 40 39 38 37 36 34 33 32 32 32 31 31 30
59 58 57 59 56 58 69 71 69 69 68 67 66 62 59 56 53 53 52 52 52 53 54 53 52 51 49 49 48 48 47 47 46 45 45 44 43 43 41 40 38 37 37 37 36 34 32 33 33 32 31 30
60 59 56 62 62 54 63 72 70 70 70 68 67 63 59 56 53 53 52 52 51 51 52 53 53 52 51 50 49 49 49 48 47 46 45 45 44 43 42 41 39 37 37 37 37 36 33 33 33 32 32 31
56 59 59 63 67 58 56 69 71 69 70 69 68 65 59 56 54 53 52 52 51 51 51 52 52 52 51 50 50 50 49 49 48 46 45 45 44 44 43 42 40 38 37 36 37 37 35 34 34 33 32 31
45 51 61 62 64 60 51 62 73 69 68 70 70 67 61 57 55 53 53 52 52 51 50 51 51 51 50 50 50 49 48 48 47 46 46 46 45 44 43 42 41 39 37 36 37 38 36 34 33 33 33 32
40 37 53 61 59 57 49 53 68 70 69 70 69 67 63 58 56 54 53 53 51 50 50 51 51 50 50 50 49 48 47 47 47 47 46 46 45 44 43 41 40 39 37 37 38 38 36 34 34 33 33 32
42 28 41 59 59 56 50 48 62 69 70 70 66 65 63 59 56 54 54 53 51 51 50 51 50 50 50 49 49 48 47 47 46 46 46 45 45 43 42 41 41 40 38 38 37 37 37 35 34 34 33 33
40 28 36 55 62 59 53 50 59 67 70 69 66 64 62 59 57 54 53 53 51 51 51 51 50 50 50 50 49 48 47 46 46 46 45 44 44 43 43 42 41 40 39 38 38 38 38 37 36 35 34 33
36 32 38 52 60 59 52 50 52 60 67 69 65 62 60 59 58 56 54 53 52 51 50 51 50 50 50 49 49 47 46 45 45 45 45 44 44 43 43 42 41 41 40 39 39 39 38 38 38 36 34 33
37 34 39 47 52 53 49 47 47 52 60 64 63 62 61 60 60 58 56 53 51 50 49 50 50 49 49 48 48 47 45 45 45 46 45 45 44 43 43 43 43 42 41 40 40 40 39 38 37 34 33 34
40 34 35 40 44 47 45 47 54 55 55 61 63 61 60 59 59 59 58 53 49 49 49 50 50 48 46 47 47 46 46 46 47 47 47 46 44 43 44 44 44 44 42 42 42 41 40 39 37 35 36 38
45 35 31 33 38 44 47 51 60 58 53 58 61 59 58 58 59 59 57 53 49 48 49 50 50 49 47 46 46 45 45 47 47 47 47 46 45 44 45 45 45 44 43 43 43 41 40 39 38 38 39 40
Wind_Direction
250 249 250 250 249 249 248 244 241 238 235 233 231 230 230 229 228 229 230 231 233 234 234 233 232 233 233 233 234 235 237 239 241 243 245 248 250 253 256 259 261 263 264 266 269 270 268 266 264 265 268 269
252 248 248 249 249 248 249 247 244 240 237 235 233 232 231 230 229 229 229 231 232 233 234 234 234 234 235 235 236 237 238 239 241 244 246 248 250 253 255 258 260 261 262 265 266 266 263 261 262 264 266 268
251 249 247 247 247 247 247 248 246 243 239 236 234 233 232 231 230 229 228 229 231 233 234 235 235 235 236 236 237 238 239 241 242 244 246 248 250 252 254 257 259 260 261 262 262 260 260 260 261 264 266 269
248 248 246 245 246 245 245 246 246 244 242 238 236 234 233 233 232 231 230 229 231 232 233 234 235 236 237 237 238 239 240 241 243 245 246 248 249 251 253 256 258 259 258 257 256 256 257 259 261 263 267 270
246 245 244 243 244 244 243 244 245 244 243 240 238 236 235 234 233 233 232 231 231 231 232 233 235 236 237 238 238 240 241 242 243 244 246 247 249 250 252 254 256 255 254 252 251 253 256 258 261 265 269 273
246 244 242 241 241 242 242 241 242 243 243 241 239 238 237 236 235 234 233 233 232 232 232 233 234 235 236 238 239 240 242 243 244 245 246 247 248 249 251 252 252 250 248 247 249 252 255 259 263 268 272 276
247 245 242 240 238 239 241 240 240 241 241 241 240 238 238 237 237 235 234 234 234 233 232 233 234 235 236 237 239 240 242 243 244 245 246 247 247 248 249 249 247 245 244 245 248 251 255 260 266 270 274 277
246 246 244 240 238 237 238 240 240 240 240 240 240 239 237 237 238 236 235 235 234 235 234 234 234 235 236 236 238 239 241 243 244 245 246 246 246 245 245 244 243 241 241 244 248 251 256 262 267 271 275 278
243 245 244 242 239 237 237 238 239 240 240 240 239 238 237 236 237 236 236 236 235 235 235 235 235 236 236 235 236 237 238 241 242 243 243 243 243 243 242 241 241 240 240 243 248 252 257 263 267 272 276 277
239 241 242 241 239 237 236 236 237 239 239 240 239 238 237 235 235 236 236 236 235 235 234 235 235 236 236 235 235 236 236 237 238 239 240 241 240 241 242 242 241 239 239 242 248 252 258 264 269 273 275 275
233 235 237 239 238 236 235 236 236 237 238 239 240 238 237 235 234 234 235 235 235 235 234 234 234 234 236 236 236 236 235 235 235 236 238 239 240 241 242 243 242 240 239 242 248 253 258 264 269 273 274 274
228 230 234 235 235 236 234 234 234 235 236 238 239 239 237 235 234 234 233 234 234 234 234 233 233 233 234 235 236 236 236 235 236 236 236 238 239 241 242 243 243 241 240 244 249 253 258 263 268 271 272 272
226 226 230 232 233 234 233 233 233 233 234 236 237 238 238 235 234 234 233 233 233 233 233 233 232 232 233 234 235 236 236 237 237 238 238 239 239 239 240 242 243 242 242 246 251 254 258 262 265 268 269 269
222 224 225 229 230 231 232 232 232 232 232 234 236 237 238 236 234 234 233 233 233 233 232 233 233 232 232 233 234 235 236 237 238 239 239 239 239 239 239 240 241 242 243 246 251 255 258 260 263 266 267 265
209 221 224 226 228 229 230 231 231 231 231 232 233 235 237 236 235 233 233 234 233 232 232 232 233 232 232 232 233 234 234 235 237 238 239 239 238 239 239 239 241 243 245 247 251 255 257 260 261 263 263 262
191 209 224 226 226 227 229 230 230 231 231 231 231 232 234 235 234 233 233 234 234 233 232 232 232 233 233 232 233 233 234 234 235 236 237 238 238 239 240 241 243 245 247 248 251 254 257 259 260 259 259 258
184 190 214 226 228 226 228 230 230 230 231 231 230 230 232 233 233 233 233 233 234 234 234 232 231 232 232 232 233 233 234 234 235 236 237 238 238 239 241 242 244 246 248 249 249 252 255 257 258 256 254 254
185 187 198 217 229 228 226 228 229 230 230 230 230 229 230 231 231 232 233 233 234 235 234 233 232 232 232 232 233 233 234 235 235 236 237 238 239 240 241 243 244 246 247 248 248 250 252 254 255 255 252 251
184 191 193 201 224 228 225 227 229 228 228 229 229 228 228 229 230 230 231 233 233 234 234 234 233 232 232 232 233 233 234 235 236 237 238 239 240 241 242 243 245 246 247 248 249 250 251 252 252 252 252 251
183 190 194 192 208 224 225 225 227 227 227 228 228 227 228 227 228 229 230 231 232 234 234 234 233 232 231 231 231 233 234 235 236 237 238 239 240 242 242 243 244 245 247 248 249 250 251 251 250 250 251 252
188 186 193 192 196 214 222 222 224 228 227 227 227 226 227 226 226 227 229 231 232 233 233 233 233 232 231 231 231 232 233 234 235 237 238 239 240 241 242 243 244 244 246 248 249 248 247 248 249 248 249 250
187 182 188 191 192 201 216 219 220 226 228 227 227 225 226 226 226 227 228 230 231 232 233 232 233 233 232 231 231 232 233 234 235 236 238 239 240 242 242 242 242 242 244 247 249 248 245 245 246 247 247 248
182 183 188 187 190 192 205 217 218 222 226 228 227 225 225 226 226 226 227 229 231 231 232 233 233 233 233 232 232 232 232 233 234 236 237 239 241 242 242 242 241 240 240 242 246 247 245 244 245 247 248 249
181 186 189 186 191 191 196 213 216 217 222 226 226 225 224 225 226 226 227 228 229 231 231 232 232 233 233 233 233 232 231 232 233 234 235 237 239 240 241 241 241 241 239 239 242 245 244 243 244 246 248 250
182 183 189 187 191 192 191 208 216 215 218 223 224 224 223 224 226 226 227 228 229 230 231 231 232 232 233 233 232 231 230 231 231 232 234 235 237 238 239 240 241 241 239 238 240 242 243 242 242 243 245 247
183 183 188 186 188 191 190 202 215 215 216 220 221 222 222 222 225 226 227 229 229 230 230 231 232 232 233 233 232 231 230 231 231 232 234 235 237 238 239 239 240 239 238 238 239 241 242 242 241 242 243 245
187 192 183 182 186 190 192 198 211 215 215 219 220 220 221 222 224 226 228 230 230 230 230 231 231 231 232 234 234 233 232 232 232 233 234 235 237 237 238 238 238 239 238 237 237 238 240 242 243 243 243 244
186 193 179 177 183 187 190 193 204 214 212 213 217 219 221 223 224 226 228 229 230 230 231 232 231 231 232 234 235 234 234 233 233 233 234 235 236 238 239 238 238 238 238 238 238 238 240 241 243 244 245 247
180 185 175 174 181 185 187 186 194 209 210 208 214 219 222 224 224 226 228 229 231 232 232 234 233 232 233 234 235 235 235 235 234 234 234 234 235 237 239 239 238 238 237 237 237 238 238 240 242 244 246 247
176 176 171 170 177 182 183 182 188 201 205 205 212 218 222 224 225 227 228 228 231 233 233 234 234 233 233 234 236 237 235 235 235 235 235 235 235 236 238 240 240 239 239 238 237 238 238 239 240 241 242 243
180 173 169 167 171 178 180 181 190 198 200 201 208 214 219 223 225 226 228 227 229 232 233 234 234 233 233 234 238 239 239 238 237 236 237 236 236 235 236 239 240 241 240 240 241 241 241 241 240 240 242 244
Height
5829 5831 5832 5833 5835 5836 5836 5837 5837 5838 5838 5839 5841 5841 5842 5843 5845 5847 5848 5850 5851 5853 5855 5857 5858 5859 5859 5861 5861 5862 5864 5865 5866 5867 5869 5870 5870 5871 5871 5872 5873 5874 5873 5872 5872 5873 5873 5873 5874 5874 5874 5875
5822 5825 5827 5828 5830 5831 5832 5833 5834 5835 5835 5836 5837 5837 5839 5840 5841 5842 5845 5846 5848 5850 5852 5854 5855 5856 5857 5858 5859 5859 5861 5863 5863 5865 5866 5867 5868 5869 5869 5870 5871 5871 5871 5870 5871 5871 5871 5871 5872 5872 5873 5873
5814 5818 5821 5822 5824 5826 5827 5829 5830 5831 5832 5833 5833 5834 5835 5836 5837 5838 5840 5843 5844 5846 5848 5850 5852 5853 5854 5855 5856 5857 5858 5860 5861 5862 5863 5864 5866 5866 5867 5868 5869 5869 5869 5869 5869 5869 5869 5870 5870 5871 5871 5871
5807 5810 5814 5816 5818 5820 5822 5823 5825 5827 5828 5829 5830 5831 5832 5833 5834 5835 5837 5839 5841 5842 5844 5846 5848 5849 5851 5852 5853 5854 5855 5857 5858 5859 5860 5862 5863 5864 5864 5865 5866 5867 5867 5867 5867 5867 5867 5868 5869 5869 5869 5869
5800 5802 5805 5809 5812 5814 5816 5817 5819 5821 5823 5825 5826 5828 5828 5829 5831 5832 5834 5836 5837 5838 5840 5842 5844 5845 5847 5849 5850 5851 5853 5854 5855 5856 5857 5859 5860 5861 5862 5863 5864 5864 5865 5865 5866 5865 5866 5866 5867 5867 5868 5868
5792 5794 5797 5800 5804 5807 5809 5811 5813 5815 5818 5820 5822 5824 5825 5827 5829 5830 5832 5833 5834 5835 5837 5839 5840 5841 5843 5845 5847 5848 5850 5851 5852 5853 5855 5856 5857 5858 5859 5860 5861 5862 5863 5863 5864 5863 5864 5864 5865 5865 5866 5866
5785 5787 5790 5793 5796 5799 5802 5804 5807 5810 5812 5815 5818 5820 5822 5824 5825 5827 5829 5829 5830 5832 5834 5836 5836 5838 5840 5841 5843 5845 5846 5848 5849 5850 5852 5853 5854 5856 5856 5857 5858 5859 5860 5861 5861 5861 5862 5862 5863 5863 5864 5864
5776 5780 5783 5786 5789 5792 5795 5799 5802 5804 5807 5810 5813 5816 5819 5821 5822 5823 5825 5826 5827 5829 5831 5833 5834 5835 5836 5838 5840 5842 5843 5844 5846 5848 5849 5850 5851 5853 5854 5855 5855 5857 5858 5859 5859 5859 5859 5860 5861 5861 5861 5862
5765 5771 5775 5778 5782 5785 5788 5792 5796 5799 5801 5805 5808 5811 5814 5816 5817 5819 5821 5822 5824 5826 5828 5830 5831 5833 5834 5835 5836 5838 5840 5842 5843 5845 5845 5847 5849 5850 5851 5852 5853 5854 5856 5856 5856 5856 5857 5858 5858 5859 5859 5860
5757 5759 5765 5769 5775 5779 5782 5786 5790 5793 5796 5800 5803 5806 5809 5811 5813 5815 5817 5819 5821 5823 5825 5827 5828 5830 5831 5832 5833 5835 5837 5839 5840 5841 5842 5844 5846 5847 5848 5849 5850 5852 5854 5853 5853 5854 5855 5855 5856 5857 5857 5857
5751 5749 5755 5761 5767 5771 5776 5780 5783 5788 5791 5794 5798 5801 5804 5807 5809 5811 5813 5815 5818 5820 5821 5823 5825 5827 5828 5830 5831 5833 5834 5836 5837 5838 5839 5841 5843 5844 5845 5846 5847 5850 5852 5851 5850 5851 5852 5853 5854 5854 5854 5855
5747 5746 5749 5753 5759 5764 5768 5773 5777 5781 5785 5789 5792 5796 5799 5801 5804 5806 5809 5811 5813 5816 5818 5819 5822 5823 5825 5827 5829 5830 5832 5833 5835 5836 5837 5838 5839 5841 5842 5843 5845 5848 5849 5848 5848 5848 5850 5851 5851 5852 5852 5852
5744 5745 5746 5748 5752 5757 5762 5767 5771 5775 5779 5783 5786 5790 5793 5797 5800 5802 5805 5807 5809 5811 5814 5816 5818 5820 5822 5824 5826 5827 5829 5831 5832 5833 5834 5835 5836 5838 5839 5840 5842 5845 5847 5846 5846 5846 5847 5848 5848 5849 5850 5850
5736 5741 5742 5743 5747 5751 5756 5761 5764 5768 5772 5777 5781 5784 5788 5792 5795 5798 5800 5802 5804 5807 5809 5812 5814 5817 5819 5821 5823 5824 5826 5828 5829 5830 5831 5832 5833 5835 5836 5837 5839 5841 5843 5844 5843 5844 5845 5846 5846 5846 5847 5847
5724 5735 5738 5739 5743 5746 5749 5754 5758 5762 5766 5770 5775 5779 5783 5787 5790 5793 5795 5797 5799 5802 5805 5808 5811 5813 5816 5818 5820 5821 5823 5824 5825 5827 5827 5829 5831 5833 5833 5835 5836 5837 5840 5841 5841 5842 5842 5843 5843 5844 5844 5844
5707 5722 5734 5735 5737 5741 5744 5747 5752 5756 5759 5764 5768 5773 5777 5781 5785 5788 5790 5793 5795 5797 5801 5804 5807 5810 5812 5815 5816 5817 5819 5821 5822 5823 5824 5825 5828 5830 5831 5832 5834 5834 5836 5838 5838 5839 5840 5841 5841 5841 5842 5842
5697 5705 5721 5730 5732 5735 5739 5741 5746 5750 5754 5758 5763 5767 5771 5775 5779 5783 5786 5788 5790 5793 5796 5800 5803 5805 5808 5811 5812 5814 5816 5817 5819 5820 5821 5822 5825 5827 5828 5829 5831 5832 5833 5835 5836 5836 5837 5838 5838 5838 5839 5839
5688 5691 5704 5719 5727 5729 5733 5737 5740 5745 5748 5752 5757 5761 5765 5770 5774 5778 5781 5783 5786 5789 5791 5795 5798 5801 5804 5807 5808 5810 5812 5814 5816 5817 5818 5819 5821 5823 5825 5826 5827 5829 5831 5831 5833 5834 5834 5835 5835 5835 5836 5836
5679 5684 5691 5703 5718 5724 5727 5732 5734 5738 5742 5746 5751 5756 5760 5764 5769 5772 5776 5779 5781 5784 5787 5790 5793 5797 5800 5802 5804 5806 5808 5809 5811 5813 5814 5816 5818 5820 5821 5823 5823 5825 5827 5828 5829 5830 5831 5831 5832 5832 5833 5833
5672 5679 5683 5688 5704 5717 5721 5725 5729 5732 5736 5741 5746 5750 5754 5758 5763 5767 5770 5774 5776 5779 5783 5785 5789 5792 5795 5797 5799 5801 5803 5805 5807 5809 5810 5812 5814 5816 5817 5819 5821 5822 5823 5824 5825 5826 5827 5828 5828 5829 5829 5830
5665 5670 5678 5681 5690 5706 5715 5718 5723 5727 5730 5735 5740 5744 5749 5753 5757 5761 5765 5768 5772 5775 5778 5781 5784 5787 5789 5792 5794 5796 5798 5800 5803 5804 5806 5808 5810 5812 5814 5815 5817 5818 5819 5821 5821 5822 5824 5824 5825 5826 5827 5827
5658 5663 5672 5676 5680 5692 5704 5713 5717 5722 5726 5729 5734 5739 5744 5748 5752 5756 5759 5763 5767 5770 5773 5776 5779 5782 5784 5787 5789 5791 5794 5796 5798 5800 5802 5804 5806 5808 5810 5812 5813 5815 5816 5817 5817 5818 5820 5821 5821 5822 5823 5824
5653 5659 5666 5669 5674 5680 5692 5706 5711 5715 5721 5724 5729 5734 5739 5743 5747 5750 5754 5758 5762 5765 5768 5771 5774 5777 5780 5782 5784 5787 5789 5791 5794 5796 5798 5800 5802 5803 5805 5808 5810 5811 5813 5813 5813 5814 5816 5817 5818 5818 5819 5820
5651 5655 5660 5663 5668 5673 5681 5697 5706 5709 5714 5717 5722 5728 5733 5738 5742 5745 5749 5753 5756 5760 5764 5767 5769 5772 5775 5777 5780 5782 5785 5787 5790 5792 5794 5795 5797 5799 5801 5803 5806 5808 5810 5811 5811 5811 5813 5814 5815 5816 5816 5817
5649 5652 5657 5659 5664 5669 5676 5690 5701 5705 5707 5711 5716 5722 5728 5732 5737 5741 5744 5748 5752 5756 5759 5762 5765 5768 5770 5772 5775 5778 5780 5783 5785 5787 5789 5791 5793 5795 5797 5799 5801 5803 5806 5807 5807 5808 5810 5811 5812 5813 5814 5815
5647 5650 5654 5656 5660 5665 5672 5682 5694 5700 5703 5706 5711 5717 5722 5727 5732 5736 5740 5744 5748 5751 5754 5757 5761 5764 5766 5768 5771 5773 5776 5778 5781 5783 5785 5787 5790 5792 5794 5796 5797 5799 5801 5802 5803 5804 5805 5806 5808 5810 5811 5812
5644 5648 5649 5651 5655 5661 5668 5675 5685 5694 5698 5701 5706 5711 5717 5722 5727 5732 5736 5740 5744 5747 5750 5753 5757 5760 5762 5764 5767 5769 5772 5774 5777 5779 5782 5784 5786 5788 5789 5791 5793 5795 5797 5798 5800 5800 5800 5802 5804 5805 5807 5809
5641 5645 5645 5647 5653 5659 5665 5669 5678 5688 5692 5696 5701 5706 5712 5717 5722 5727 5731 5735 5739 5743 5746 5749 5753 5756 5758 5761 5763 5765 5768 5771 5773 5775 5777 5780 5781 5783 5785 5787 5789 5791 5792 5795 5796 5797 5798 5799 5800 5802 5805 5806
5640 5643 5644 5646 5652 5657 5662 5665 5671 5682 5689 5693 5697 5700 5705 5712 5717 5722 5726 5731 5735 5739 5742 5745 5749 5752 5755 5757 5759 5761 5764 5766 5769 5771 5773 5775 5777 5779 5781 5782 5784 5786 5788 5790 5791 5793 5794 5796 5798 5800 5802 5802
5637 5642 5643 5645 5650 5656 5660 5663 5666 5674 5682 5689 5693 5697 5702 5708 5713 5718 5722 5727 5731 5734 5738 5741 5744 5748 5751 5753 5754 5757 5759 5761 5763 5766 5769 5771 5773 5775 5777 5778 5779 5782 5784 5785 5786 5788 5790 5792 5794 5796 5796 5796
5635 5640 5643 5644 5649 5653 5657 5661 5663 5669 5677 5684 5689 5694 5699 5704 5710 5715 5719 5724 5728 5730 5733 5736 5739 5743 5746 5750 5751 5753 5755 5757 5759 5762 5764 5766 5769 5771 5772 5774 5775 5777 5779 5781 5783 5785 5786 5788 5790 5791 5791 5792